Punta Gorda, FL

12:32 PM EDT on September 28, 2016 (GMT -0400)
Charlotte County

Weather History for KPGD - May, 2014

Change the Weather History Date:

Tuesday, May 13, 2014

  Actual Average Record
Temperature  
Mean Temperature 80 °F -  
Max Temperature 91 °F 86 °F 93 °F (2008)
Min Temperature 69 °F 63 °F 55 °F (2001)
Cooling Degree Days 14    
Growing Degree Days 30 (Base 50)    
Moisture  
Dew Point 70 °F    
Average Humidity 73    
Maximum Humidity 93    
Minimum Humidity 50    
Precipitation  
Precipitation 0.05 in - - ()
Sea Level Pressure  
Sea Level Pressure 30.04 in    
Wind  
Wind Speed 10 mph (East)    
Max Wind Speed 17 mph    
Max Gust Speed 26 mph    
Visibility 9 miles    
Events Rain , Thunderstorm    
Averages and records for this station are not official NWS values.
T = Trace of Precipitation, MM = Missing Value Source: NWS Daily Summary

Daily Weather History Graph

Daily Weather History Graph

Search for Another Location

Airport or City:

Trip Planner

Search our weather history database for the weather conditions in past years. The results will help you decide how hot, cold, wet, or windy it might be!

Date:

Astronomy

May. 13, 2014 Rise Set
Actual Time 6:41 AM EDT 8:07 PM EDT
Civil Twilight 6:16 AM EDT 8:32 PM EDT
Nautical Twilight 5:46 AM EDT 9:02 PM EDT
Astronomical Twilight 5:15 AM EDT 9:34 PM EDT
Moon 7:13 PM EDT (5/13) 5:48 AM EDT (5/13)
Length of Visible Light 14h 16m
Length of Day
13h 26m
Waxing Gibbous, 98% of the Moon is Illuminated
May 13
Waxing Gibbous
May 14
Full
May 21
Last Quarter
May 28
New
Jun 5
First Quarter

Hourly Weather History & Observations

Time (EDT) Temp. Heat Index Dew Point Humidity Pressure Visibility Wind Dir Wind Speed Gust Speed Precip Events Conditions
12:53 AM 75.0 °F - 68.0 °F 79% 30.07 in 10.0 mi East 8.1 mph - N/A   Clear
2:53 AM 71.1 °F - 68.0 °F 90% 30.04 in 9.0 mi ENE 8.1 mph - N/A   Clear
3:53 AM 70.0 °F - 68.0 °F 93% 30.04 in 7.0 mi ENE 5.8 mph - N/A   Clear
4:53 AM 70.0 °F - 66.9 °F 90% 30.04 in 6.0 mi NE 6.9 mph - N/A   Clear
5:53 AM 70.0 °F - 66.9 °F 90% 30.04 in 6.0 mi ENE 6.9 mph - N/A   Clear
6:53 AM 69.1 °F - 66.9 °F 93% 30.06 in 3.0 mi NE 5.8 mph - N/A   Clear
7:53 AM 72.0 °F - 69.1 °F 91% 30.07 in 6.0 mi ENE 8.1 mph - N/A   Clear
9:45 AM 82.0 °F 85.9 °F 70.0 °F 67% 30.08 in 10.0 mi East 13.8 mph - N/A   Mostly Cloudy
9:53 AM 82.0 °F 85.9 °F 70.0 °F 67% 30.08 in 10.0 mi East 16.1 mph - N/A   Mostly Cloudy
10:53 AM 84.0 °F 89.0 °F 71.1 °F 65% 30.08 in 10.0 mi East 11.5 mph 21.9 mph N/A   Mostly Cloudy
12:00 PM 86.0 °F 90.7 °F 70.0 °F 59% 30.07 in 10.0 mi East 16.1 mph 21.9 mph N/A   Mostly Cloudy
12:53 PM 88.0 °F 92.1 °F 69.1 °F 53% 30.06 in 10.0 mi ESE 12.7 mph 21.9 mph N/A   Mostly Cloudy
1:53 PM 90.0 °F 94.5 °F 69.1 °F 50% 30.04 in 10.0 mi East 12.7 mph 19.6 mph N/A   Scattered Clouds
2:27 PM 90.0 °F 94.5 °F 69.1 °F 50% 30.03 in 10.0 mi East 10.4 mph - N/A Thunderstorm Mostly Cloudy
2:41 PM 90.0 °F 94.5 °F 69.1 °F 50% 30.03 in 10.0 mi East 13.8 mph - N/A Thunderstorm Thunderstorm
2:53 PM 89.1 °F 93.7 °F 69.1 °F 52% 30.02 in 10.0 mi East 15.0 mph 21.9 mph N/A Thunderstorm Thunderstorm
3:13 PM 86.0 °F 90.7 °F 70.0 °F 59% 30.03 in 10.0 mi SSE 11.5 mph 21.9 mph N/A Thunderstorm Mostly Cloudy
3:22 PM 80.1 °F 83.8 °F 72.0 °F 76% 30.03 in 4.0 mi South 17.3 mph 26.5 mph 0.03 in Rain , Thunderstorm Light Rain
3:30 PM 79.0 °F - 73.9 °F 84% 30.02 in 6.0 mi South 10.4 mph - 0.04 in Rain , Thunderstorm Light Thunderstorms and Rain
3:53 PM 80.1 °F 84.2 °F 73.0 °F 79% 30.01 in 10.0 mi SSE 6.9 mph - 0.05 in Rain , Thunderstorm Light Thunderstorms and Rain
4:06 PM 79.0 °F - 73.0 °F 82% 30.02 in 10.0 mi SSE 5.8 mph - 0.00 in   Mostly Cloudy
4:53 PM 80.1 °F 84.2 °F 73.0 °F 79% 29.99 in 10.0 mi Calm Calm - 0.00 in   Overcast
5:53 PM 84.9 °F 90.1 °F 71.1 °F 63% 29.99 in 10.0 mi ESE 12.7 mph - N/A   Clear
6:53 PM 84.0 °F 89.6 °F 72.0 °F 67% 30.00 in 10.0 mi East 10.4 mph - N/A   Mostly Cloudy
7:53 PM 82.0 °F 86.3 °F 71.1 °F 69% 30.00 in 10.0 mi East 13.8 mph - 0.00 in   Partly Cloudy
8:53 PM 80.1 °F 83.6 °F 71.1 °F 74% 30.02 in 10.0 mi East 11.5 mph - N/A   Partly Cloudy
9:53 PM 79.0 °F - 72.0 °F 79% 30.05 in 10.0 mi East 11.5 mph - N/A   Partly Cloudy
10:53 PM 78.1 °F - 72.0 °F 81% 30.05 in 10.0 mi East 10.4 mph - N/A   Clear
11:53 PM 77.0 °F - 72.0 °F 84% 30.06 in 10.0 mi East 9.2 mph - N/A   Clear